Location: Izdebno
(52.6670°N, 16.2170°E)
Time: 04:41:07
(UTC+02:00)

Transit 4A - Pass Details

Date: 28 February 2024
Orbit: 871 x 972 km, 66.8° (Epoch: 22 April)

Event Time Altitude Azimuth Distance (km) Brightness Sun altitude
Rises 05:25:17 0° 301° (WNW) 3,547 - -12.9°
Exits shadow 05:27:23 - 310° (NW) 2,899 10.1 -12.6°
Reaches altitude 10° 05:28:30 10° 317° (NW) 2,587 9.9 -12.4°
Maximum altitude 05:32:57 21° 6° (N) 1,896 9.6 -11.8°
Drops below altitude 10° 05:37:20 10° 54° (NE) 2,545 11.1 -11.1°
Sets 05:40:28 0° 71° (ENE) 3,474 12.5 -10.6°
